SOLRAD 11A/B PKM, 8752

Orbit data source: Space-Track

SOLRAD 11A/B PKM, 8752 is space debris in HEO originally from a launch on Mon, 15 Mar 1976 UTC launched from the Air Force Eastern Test Range (AFETR). Debris objects in space refer to the collection of defunct objects orbiting the Earth. Examples of debris include non-operational satellites, rocket bodies, and fragments generated from explosions, collisions, or faulty payload assembly.

Loading next visibility...
Identifier
8752, 1976-023G
Orbit
HEO
Country
Flag of USUS
Related business
Manufacturer
Martin Marietta
Mission
Spacecraft
Bus & Motor
STAR 17A, Unknown motor
Mass
~12 kg wet, 12 kg dry
Launch date (UTC)
1976-03-15 (50 years ago)
Launch vehicle
Unknown
Launch site
Air Force Eastern Test Range (AFETR)
Object type
Payload
Rocket body
Debris
Shape & HBR
Unknown
Radar Cross Section
Large (>1 m²)

Expand to show TLE details & history
Last TLE update: 1 month ago

TLE from 1 month ago
0 SOLRAD 11A/B PKM
1 08752U 76023G   25273.41526861 -.00000478  00000-0  00000-0 0  9992
2 08752  21.4546 355.3585 4375384  54.2172 359.2412  0.41541416 80410
Epoch: 2025-09-30T09:57Z
TLE epoch observation values (Epoch: 2025-09-30T09:57:59.207Z)
Latitude
17.06435°
Longitude
-112.23392°
Altitude
36,306.375 km
Speed
3.664 km/s
True Right ascension
03h 06m 40s
True Declination
17° 02' 54"
Sunlit
Object was in daylight at epoch
Visualization orbit readout
Latitude
Unknown
Longitude
Unknown
Altitude
Unknown
Speed
Unknown
Apparent Right ascension
Unknown
Apparent Declination
Unknown
Sunlit
N/A
Visualization observer readout
Local Sidereal Time
03:00:31
Azimuth
Unknown
Elevation
Unknown
Doppler factor
Unknown
Orbital elements
Apogee altitude
102,691.621 km
Perigee altitude
36,297.28 km
Semi-major axis
75,872.588 km
Eccentricity
0.43754
Inclination
21.4546°
RAAN
355.3585°
Arg. of periapsis
54.2172°
True anomaly
357.84357°
Mean anomaly
359.2412°
Eccentric anomaly
358.65103°
Mean motion
0.10385 °/min
Orbital period
3,466.46 mins
BSTAR
0
Loading maneuver chart data...
Computing Atmospheric mass density...
Loading historical data...
Loading historical data...
Loading historical data...
Loading historical data...
Loading historical data...
Loading historical data...
Loading historical data...

Documentation

Showing up to 5 results
|